| time (UTC) | temp F | wind direction | speed MPH | gust MPH | rain 1hr in | rain 24hr in | rain mn in | humidity % | barometer mb |
| 20260509111552 | 85 | 360 | 8.0 | 15.0 | 0.00 | 0.00 | 0.00 | 17 | 972.4 |
| 20260509111049 | 86 | 360 | 10.0 | 20.0 | 0.00 | 0.00 | 0.00 | 17 | 972.5 |
| 20260509110551 | 86 | 360 | 7.0 | 20.0 | 0.00 | 0.00 | 0.00 | 17 | 972.3 |
| 20260509110049 | 86 | 360 | 7.0 | 14.0 | 0.00 | 0.00 | 0.00 | 17 | 972.3 |
| 20260509105549 | 86 | 360 | 7.0 | 18.0 | 0.00 | 0.00 | 0.00 | 17 | 972.2 |
| 20260509105049 | 86 | 360 | 9.0 | 18.0 | 0.00 | 0.00 | 0.00 | 17 | 972.2 |
| 20260509104554 | 86 | 360 | 9.0 | 16.0 | 0.00 | 0.00 | 0.00 | 17 | 972.2 |
| 20260509104048 | 86 | 360 | 8.0 | 17.0 | 0.00 | 0.00 | 0.00 | 17 | 972.4 |
| 20260509103548 | 86 | 360 | 10.0 | 17.0 | 0.00 | 0.00 | 0.00 | 17 | 972.2 |
| 20260509103058 | 86 | 360 | 10.0 | 16.0 | 0.00 | 0.00 | 0.00 | 18 | 972.1 |
| 20260509102549 | 86 | 360 | 10.0 | 16.0 | 0.00 | 0.00 | 0.00 | 18 | 972.1 |
| 20260509102049 | 86 | 360 | 9.0 | 16.0 | 0.00 | 0.00 | 0.00 | 18 | 972.1 |
| 20260509101549 | 87 | 360 | 8.0 | 17.0 | 0.00 | 0.00 | 0.00 | 18 | 972.2 |
| 20260509101048 | 87 | 360 | 9.0 | 17.0 | 0.00 | 0.00 | 0.00 | 18 | 972.2 |
| 20260509100548 | 87 | 360 | 11.0 | 16.0 | 0.00 | 0.00 | 0.00 | 17 | 972.1 |
| 20260509100049 | 87 | 360 | 9.0 | 16.0 | 0.00 | 0.00 | 0.00 | 17 | 972.1 |
| 20260509095549 | 87 | 360 | 10.0 | 17.0 | 0.00 | 0.00 | 0.00 | 17 | 972.1 |
| 20260509095049 | 87 | 360 | 11.0 | 16.0 | 0.00 | 0.00 | 0.00 | 17 | 972.0 |
| 20260509094557 | 87 | 360 | 8.0 | 17.0 | 0.00 | 0.00 | 0.00 | 17 | 972.1 |
| 20260509094048 | 88 | 360 | 10.0 | 17.0 | 0.00 | 0.00 | 0.00 | 17 | 972.2 |
| 20260509093549 | 88 | 360 | 10.0 | 18.0 | 0.00 | 0.00 | 0.00 | 17 | 972.2 |
| 20260509093049 | 88 | 360 | 13.0 | 18.0 | 0.00 | 0.00 | 0.00 | 16 | 972.1 |
| 20260509092549 | 88 | 360 | 11.0 | 18.0 | 0.00 | 0.00 | 0.00 | 16 | 972.1 |
| 20260509092052 | 88 | 360 | 10.0 | 18.0 | 0.00 | 0.00 | 0.00 | 16 | 972.0 |
| 20260509091554 | 88 | 360 | 12.0 | 18.0 | 0.00 | 0.00 | 0.00 | 15 | 972.1 |
| 20260509091049 | 89 | 360 | 9.0 | 18.0 | 0.00 | 0.00 | 0.00 | 15 | 972.1 |
| 20260509090549 | 89 | 360 | 12.0 | 19.0 | 0.00 | 0.00 | 0.00 | 15 | 972.1 |
| 20260509090055 | 89 | 360 | 13.0 | 20.0 | 0.00 | 0.00 | 0.00 | 15 | 972.0 |
| 20260509085548 | 89 | 360 | 14.0 | 21.0 | 0.00 | 0.00 | 0.00 | 14 | 972.0 |
| 20260509085048 | 89 | 360 | 14.0 | 23.0 | 0.00 | 0.00 | 0.00 | 14 | 972.1 |
| 20260509084558 | 89 | 360 | 13.0 | 24.0 | 0.00 | 0.00 | 0.00 | 14 | 972.1 |
| 20260509084049 | 89 | 360 | 12.0 | 22.0 | 0.00 | 0.00 | 0.00 | 14 | 972.0 |
| 20260509083548 | 90 | 360 | 11.0 | 22.0 | 0.00 | 0.00 | 0.00 | 14 | 971.9 |
| 20260509083104 | 90 | 360 | 15.0 | 21.0 | 0.00 | 0.00 | 0.00 | 13 | 971.9 |
| 20260509082548 | 90 | 360 | 12.0 | 22.0 | 0.00 | 0.00 | 0.00 | 13 | 971.9 |
| 20260509082052 | 90 | 360 | 13.0 | 22.0 | 0.00 | 0.00 | 0.00 | 13 | 972.1 |
| 20260509081549 | 90 | 360 | 13.0 | 23.0 | 0.00 | 0.00 | 0.00 | 13 | 972.0 |
| 20260509081049 | 90 | 360 | 12.0 | 24.0 | 0.00 | 0.00 | 0.00 | 12 | 971.9 |
| 20260509080552 | 90 | 360 | 13.0 | 18.0 | 0.00 | 0.00 | 0.00 | 12 | 971.9 |
| 20260509080051 | 90 | 360 | 11.0 | 17.0 | 0.00 | 0.00 | 0.00 | 12 | 971.9 |
| 20260509075548 | 90 | 360 | 9.0 | 17.0 | 0.00 | 0.00 | 0.00 | 12 | 972.0 |
| 20260509075050 | 90 | 360 | 8.0 | 18.0 | 0.00 | 0.00 | 0.00 | 12 | 972.0 |
| 20260509074608 | 90 | 360 | 9.0 | 18.0 | 0.00 | 0.00 | 0.00 | 12 | 971.9 |
| 20260509074048 | 91 | 360 | 10.0 | 16.0 | 0.00 | 0.00 | 0.00 | 12 | 971.9 |
| 20260509073549 | 91 | 360 | 8.0 | 15.0 | 0.00 | 0.00 | 0.00 | 12 | 972.0 |
| 20260509073103 | 91 | 360 | 8.0 | 15.0 | 0.00 | 0.00 | 0.00 | 12 | 972.1 |
| 20260509072549 | 91 | 360 | 9.0 | 16.0 | 0.00 | 0.00 | 0.00 | 12 | 972.0 |
| 20260509072048 | 91 | 360 | 9.0 | 16.0 | 0.00 | 0.00 | 0.00 | 12 | 972.0 |
| 20260509071556 | 91 | 360 | 8.0 | 16.0 | 0.00 | 0.00 | 0.00 | 12 | 972.0 |
| 20260509071049 | 91 | 360 | 9.0 | 17.0 | 0.00 | 0.00 | 0.00 | 12 | 972.0 |
| 20260509070549 | 91 | 360 | 11.0 | 19.0 | 0.00 | 0.00 | 0.00 | 12 | 972.1 |
| 20260509070054 | 91 | 360 | 10.0 | 19.0 | 0.00 | 0.00 | 0.00 | 12 | 972.1 |
| 20260509065548 | 91 | 360 | 11.0 | 19.0 | 0.00 | 0.00 | 0.00 | 12 | 972.1 |
| 20260509065048 | 91 | 360 | 9.0 | 19.0 | 0.00 | 0.00 | 0.00 | 12 | 972.0 |
| 20260509064549 | 91 | 360 | 11.0 | 17.0 | 0.00 | 0.00 | 0.00 | 12 | 972.0 |
| 20260509064048 | 91 | 360 | 12.0 | 17.0 | 0.00 | 0.00 | 0.00 | 12 | 972.1 |
| 20260509063549 | 91 | 360 | 8.0 | 19.0 | 0.00 | 0.00 | 0.00 | 12 | 972.1 |
| 20260509063059 | 92 | 360 | 11.0 | 19.0 | 0.00 | 0.00 | 0.00 | 12 | 972.0 |
| 20260509062549 | 92 | 360 | 11.0 | 18.0 | 0.00 | 0.00 | 0.00 | 12 | 972.0 |
| 20260509062049 | 92 | 360 | 12.0 | 18.0 | 0.00 | 0.00 | 0.00 | 12 | 972.0 |
| 20260509061548 | 92 | 360 | 13.0 | 19.0 | 0.00 | 0.00 | 0.00 | 12 | 972.0 |
| 20260509061050 | 92 | 360 | 11.0 | 19.0 | 0.00 | 0.00 | 0.00 | 12 | 972.1 |
| 20260509060549 | 92 | 360 | 9.0 | 18.0 | 0.00 | 0.00 | 0.00 | 13 | 972.1 |
| 20260509060106 | 92 | 360 | 10.0 | 21.0 | 0.00 | 0.00 | 0.00 | 13 | 972.0 |
| 20260509055549 | 92 | 360 | 13.0 | 19.0 | 0.00 | 0.00 | 0.00 | 13 | 971.8 |
| 20260509055048 | 92 | 360 | 11.0 | 18.0 | 0.00 | 0.00 | 0.00 | 13 | 972.0 |
| 20260509054548 | 92 | 360 | 10.0 | 18.0 | 0.00 | 0.00 | 0.00 | 13 | 971.9 |
| 20260509054048 | 92 | 360 | 10.0 | 21.0 | 0.00 | 0.00 | 0.00 | 13 | 971.9 |
| 20260509053549 | 93 | 360 | 12.0 | 21.0 | 0.00 | 0.00 | 0.00 | 13 | 971.8 |
| 20260509053100 | 93 | 360 | 11.0 | 21.0 | 0.00 | 0.00 | 0.00 | 13 | 971.9 |
| 20260509052549 | 93 | 360 | 13.0 | 21.0 | 0.00 | 0.00 | 0.00 | 13 | 971.9 |
| 20260509052048 | 93 | 360 | 13.0 | 22.0 | 0.00 | 0.00 | 0.00 | 13 | 972.0 |
| 20260509051549 | 93 | 360 | 15.0 | 22.0 | 0.00 | 0.00 | 0.00 | 13 | 971.9 |
| 20260509051049 | 93 | 360 | 11.0 | 22.0 | 0.00 | 0.00 | 0.00 | 13 | 971.9 |
| 20260509050552 | 93 | 360 | 15.0 | 22.0 | 0.00 | 0.00 | 0.00 | 13 | 971.9 |
| 20260509050049 | 93 | 360 | 14.0 | 25.0 | 0.00 | 0.00 | 0.00 | 13 | 972.0 |
| 20260509045552 | 93 | 360 | 13.0 | 23.0 | 0.00 | 0.00 | 0.00 | 13 | 971.9 |
| 20260509045048 | 93 | 360 | 13.0 | 26.0 | 0.00 | 0.00 | 0.00 | 13 | 971.7 |
| 20260509044548 | 93 | 360 | 14.0 | 26.0 | 0.00 | 0.00 | 0.00 | 13 | 971.7 |
| 20260509044049 | 93 | 360 | 12.0 | 19.0 | 0.00 | 0.00 | 0.00 | 13 | 971.8 |
| 20260509043548 | 93 | 360 | 10.0 | 19.0 | 0.00 | 0.00 | 0.00 | 13 | 971.8 |
| 20260509043054 | 93 | 360 | 12.0 | 20.0 | 0.00 | 0.00 | 0.00 | 13 | 971.7 |
| 20260509042548 | 94 | 360 | 11.0 | 22.0 | 0.00 | 0.00 | 0.00 | 13 | 971.5 |
| 20260509042049 | 94 | 360 | 12.0 | 22.0 | 0.00 | 0.00 | 0.00 | 13 | 971.5 |
| 20260509041549 | 94 | 360 | 14.0 | 21.0 | 0.00 | 0.00 | 0.00 | 13 | 971.6 |
| 20260509041049 | 94 | 360 | 10.0 | 21.0 | 0.00 | 0.00 | 0.00 | 13 | 971.4 |
| 20260509040548 | 94 | 360 | 12.0 | 21.0 | 0.00 | 0.00 | 0.00 | 13 | 971.5 |
| 20260509035549 | 94 | 360 | 16.0 | 25.0 | 0.00 | 0.00 | 0.00 | 13 | 971.1 |
| 20260509035049 | 94 | 360 | 13.0 | 21.0 | 0.00 | 0.00 | 0.00 | 13 | 971.2 |
| 20260509034549 | 94 | 360 | 15.0 | 21.0 | 0.00 | 0.00 | 0.00 | 13 | 971.1 |
| 20260509034048 | 94 | 360 | 14.0 | 23.0 | 0.00 | 0.00 | 0.00 | 13 | 971.0 |
| 20260509033548 | 95 | 360 | 10.0 | 22.0 | 0.00 | 0.00 | 0.00 | 13 | 971.1 |
| 20260509033110 | 95 | 360 | 10.0 | 21.0 | 0.00 | 0.00 | 0.00 | 13 | 971.1 |
| 20260509032549 | 95 | 360 | 15.0 | 20.0 | 0.00 | 0.00 | 0.00 | 13 | 971.0 |
| 20260509032049 | 95 | 360 | 12.0 | 18.0 | 0.00 | 0.00 | 0.00 | 13 | 970.9 |
| 20260509031550 | 95 | 360 | 10.0 | 21.0 | 0.00 | 0.00 | 0.00 | 13 | 970.8 |
| 20260509031050 | 95 | 360 | 11.0 | 19.0 | 0.00 | 0.00 | 0.00 | 13 | 970.8 |
| 20260509030549 | 96 | 360 | 12.0 | 19.0 | 0.00 | 0.00 | 0.00 | 13 | 970.7 |
| 20260509030049 | 96 | 360 | 9.0 | 16.0 | 0.00 | 0.00 | 0.00 | 13 | 970.7 |
| 20260509025548 | 96 | 360 | 10.0 | 16.0 | 0.00 | 0.00 | 0.00 | 13 | 970.6 |
| 20260509025049 | 96 | 360 | 10.0 | 16.0 | 0.00 | 0.00 | 0.00 | 13 | 970.5 |
| 20260509024557 | 97 | 360 | 10.0 | 16.0 | 0.00 | 0.00 | 0.00 | 13 | 970.5 |
| 20260509024050 | 97 | 360 | 11.0 | 16.0 | 0.00 | 0.00 | 0.00 | 13 | 970.4 |
| 20260509023549 | 98 | 360 | 11.0 | 17.0 | 0.00 | 0.00 | 0.00 | 12 | 970.5 |
| 20260509023048 | 98 | 360 | 11.0 | 17.0 | 0.00 | 0.00 | 0.00 | 12 | 970.4 |
| 20260509022550 | 98 | 360 | 6.0 | 13.0 | 0.00 | 0.00 | 0.00 | 12 | 970.2 |
| 20260509022050 | 98 | 360 | 7.0 | 13.0 | 0.00 | 0.00 | 0.00 | 12 | 970.2 |
| 20260509021549 | 98 | 360 | 6.0 | 13.0 | 0.00 | 0.00 | 0.00 | 12 | 970.2 |
| 20260509021049 | 98 | 360 | 7.0 | 15.0 | 0.00 | 0.00 | 0.00 | 11 | 970.2 |
| 20260509020549 | 99 | 360 | 8.0 | 20.0 | 0.00 | 0.00 | 0.00 | 11 | 970.1 |
| 20260509015549 | 99 | 360 | 10.0 | 14.0 | 0.00 | 0.00 | 0.00 | 11 | 969.9 |
| 20260509015049 | 99 | 360 | 8.0 | 16.0 | 0.00 | 0.00 | 0.00 | 11 | 969.9 |
| 20260509014548 | 99 | 360 | 10.0 | 16.0 | 0.00 | 0.00 | 0.00 | 11 | 970.0 |
| 20260509014048 | 99 | 360 | 10.0 | 14.0 | 0.00 | 0.00 | 0.00 | 11 | 969.9 |
| 20260509013548 | 99 | 360 | 9.0 | 14.0 | 0.00 | 0.00 | 0.00 | 11 | 969.9 |
| 20260509013048 | 100 | 360 | 10.0 | 16.0 | 0.00 | 0.00 | 0.00 | 11 | 969.9 |
| 20260509012548 | 100 | 360 | 11.0 | 16.0 | 0.00 | 0.00 | 0.00 | 11 | 970.1 |
| 20260509012048 | 100 | 360 | 9.0 | 17.0 | 0.00 | 0.00 | 0.00 | 11 | 970.0 |
| 20260509011555 | 100 | 360 | 9.0 | 17.0 | 0.00 | 0.00 | 0.00 | 11 | 970.1 |
| 20260509011048 | 100 | 360 | 9.0 | 17.0 | 0.00 | 0.00 | 0.00 | 11 | 970.1 |
| 20260509010552 | 100 | 360 | 6.0 | 15.0 | 0.00 | 0.00 | 0.00 | 11 | 970.1 |
| 20260509010048 | 100 | 360 | 9.0 | 15.0 | 0.00 | 0.00 | 0.00 | 10 | 970.2 |
| 20260509005549 | 100 | 360 | 11.0 | 20.0 | 0.00 | 0.00 | 0.00 | 11 | 970.1 |
| 20260509005048 | 100 | 360 | 13.0 | 20.0 | 0.00 | 0.00 | 0.00 | 10 | 970.1 |
| 20260509004550 | 100 | 360 | 13.0 | 18.0 | 0.00 | 0.00 | 0.00 | 10 | 970.3 |
| 20260509004048 | 100 | 360 | 10.0 | 15.0 | 0.00 | 0.00 | 0.00 | 10 | 970.2 |
| 20260509003548 | 100 | 360 | 9.0 | 17.0 | 0.00 | 0.00 | 0.00 | 11 | 970.3 |
| 20260509003055 | 100 | 360 | 12.0 | 17.0 | 0.00 | 0.00 | 0.00 | 10 | 970.3 |
| 20260509002548 | 100 | 360 | 9.0 | 19.0 | 0.00 | 0.00 | 0.00 | 11 | 970.3 |
| 20260509002048 | 100 | 360 | 11.0 | 21.0 | 0.00 | 0.00 | 0.00 | 11 | 970.4 |
| 20260509001548 | 100 | 360 | 9.0 | 21.0 | 0.00 | 0.00 | 0.00 | 11 | 970.4 |
| 20260509001050 | 100 | 360 | 9.0 | 17.0 | 0.00 | 0.00 | 0.00 | 11 | 970.5 |
| 20260509000550 | 100 | 360 | 8.0 | 19.0 | 0.00 | 0.00 | 0.00 | 11 | 970.6 |
| 20260509000048 | 100 | 360 | 11.0 | 19.0 | 0.00 | 0.00 | 0.00 | 11 | 970.5 |
| 20260508235548 | 100 | 360 | 10.0 | 14.0 | 0.00 | 0.00 | 0.00 | 11 | 970.5 |
| 20260508235049 | 100 | 360 | 10.0 | 16.0 | 0.00 | 0.00 | 0.00 | 10 | 970.5 |
| 20260508234549 | 100 | 360 | 11.0 | 15.0 | 0.00 | 0.00 | 0.00 | 10 | 970.6 |
| 20260508234048 | 100 | 360 | 9.0 | 15.0 | 0.00 | 0.00 | 0.00 | 11 | 970.6 |
| 20260508233548 | 100 | 360 | 9.0 | 19.0 | 0.00 | 0.00 | 0.00 | 11 | 970.8 |
| 20260508233050 | 100 | 360 | 11.0 | 19.0 | 0.00 | 0.00 | 0.00 | 11 | 970.9 |
| 20260508232548 | 100 | 360 | 13.0 | 18.0 | 0.00 | 0.00 | 0.00 | 11 | 970.9 |
| 20260508232048 | 100 | 360 | 13.0 | 18.0 | 0.00 | 0.00 | 0.00 | 12 | 971.1 |
| 20260508231550 | 100 | 360 | 11.0 | 20.0 | 0.00 | 0.00 | 0.00 | 11 | 971.1 |
| 20260508231048 | 100 | 360 | 9.0 | 24.0 | 0.00 | 0.00 | 0.00 | 11 | 971.1 |
| 20260508230550 | 100 | 360 | 12.0 | 24.0 | 0.00 | 0.00 | 0.00 | 11 | 971.1 |
| 20260508230052 | 100 | 360 | 13.0 | 18.0 | 0.00 | 0.00 | 0.00 | 12 | 971.2 |
| 20260508225548 | 99 | 360 | 10.0 | 18.0 | 0.00 | 0.00 | 0.00 | 12 | 971.3 |
| 20260508225050 | 99 | 360 | 13.0 | 19.0 | 0.00 | 0.00 | 0.00 | 12 | 971.2 |
| 20260508224553 | 99 | 360 | 13.0 | 19.0 | 0.00 | 0.00 | 0.00 | 12 | 971.4 |
| 20260508224048 | 99 | 360 | 13.0 | 19.0 | 0.00 | 0.00 | 0.00 | 12 | 971.5 |
| 20260508223548 | 99 | 360 | 10.0 | 19.0 | 0.00 | 0.00 | 0.00 | 12 | 971.5 |
| 20260508223049 | 99 | 360 | 12.0 | 20.0 | 0.00 | 0.00 | 0.00 | 13 | 971.7 |
| 20260508222550 | 98 | 360 | 13.0 | 20.0 | 0.00 | 0.00 | 0.00 | 12 | 971.5 |
| 20260508222049 | 98 | 360 | 12.0 | 18.0 | 0.00 | 0.00 | 0.00 | 13 | 971.8 |
| 20260508221548 | 98 | 360 | 11.0 | 20.0 | 0.00 | 0.00 | 0.00 | 13 | 971.8 |
| 20260508221049 | 98 | 360 | 11.0 | 18.0 | 0.00 | 0.00 | 0.00 | 13 | 971.9 |
| 20260508220549 | 98 | 360 | 10.0 | 20.0 | 0.00 | 0.00 | 0.00 | 13 | 972.2 |
| 20260508220052 | 98 | 360 | 14.0 | 21.0 | 0.00 | 0.00 | 0.00 | 13 | 972.2 |
| 20260508215548 | 97 | 360 | 11.0 | 21.0 | 0.00 | 0.00 | 0.00 | 13 | 972.3 |
| 20260508215048 | 97 | 360 | 15.0 | 20.0 | 0.00 | 0.00 | 0.00 | 14 | 972.3 |
| 20260508214549 | 97 | 360 | 13.0 | 20.0 | 0.00 | 0.00 | 0.00 | 15 | 972.4 |
| 20260508214049 | 97 | 360 | 12.0 | 22.0 | 0.00 | 0.00 | 0.00 | 15 | 972.6 |
| 20260508213548 | 97 | 360 | 13.0 | 22.0 | 0.00 | 0.00 | 0.00 | 14 | 972.6 |
| 20260508213051 | 96 | 360 | 11.0 | 21.0 | 0.00 | 0.00 | 0.00 | 16 | 972.6 |
| 20260508212549 | 96 | 360 | 12.0 | 21.0 | 0.00 | 0.00 | 0.00 | 14 | 972.8 |
| 20260508212049 | 96 | 360 | 10.0 | 17.0 | 0.00 | 0.00 | 0.00 | 14 | 972.8 |
| 20260508211548 | 96 | 360 | 12.0 | 17.0 | 0.00 | 0.00 | 0.00 | 15 | 972.9 |
| 20260508211048 | 96 | 360 | 5.0 | 19.0 | 0.00 | 0.00 | 0.00 | 16 | 973.2 |
| 20260508210552 | 96 | 360 | 11.0 | 19.0 | 0.00 | 0.00 | 0.00 | 18 | 973.2 |
| 20260508210051 | 96 | 360 | 13.0 | 18.0 | 0.00 | 0.00 | 0.00 | 17 | 973.3 |
| 20260508205549 | 96 | 360 | 10.0 | 16.0 | 0.00 | 0.00 | 0.00 | 15 | 973.3 |
| 20260508205048 | 96 | 360 | 10.0 | 17.0 | 0.00 | 0.00 | 0.00 | 15 | 973.5 |
| 20260508204549 | 96 | 360 | 8.0 | 17.0 | 0.00 | 0.00 | 0.00 | 15 | 973.6 |
| 20260508204053 | 95 | 360 | 10.0 | 16.0 | 0.00 | 0.00 | 0.00 | 15 | 973.6 |
| 20260508203548 | 95 | 360 | 9.0 | 17.0 | 0.00 | 0.00 | 0.00 | 15 | 973.6 |
| 20260508203049 | 96 | 360 | 10.0 | 20.0 | 0.00 | 0.00 | 0.00 | 16 | 973.8 |
| 20260508202552 | 96 | 360 | 13.0 | 20.0 | 0.00 | 0.00 | 0.00 | 15 | 973.9 |
| 20260508202048 | 96 | 360 | 5.0 | 12.0 | 0.00 | 0.00 | 0.00 | 15 | 973.7 |
| 20260508201549 | 95 | 360 | 2.0 | 12.0 | 0.00 | 0.00 | 0.00 | 15 | 973.8 |
| 20260508201048 | 95 | 360 | 6.0 | 18.0 | 0.00 | 0.00 | 0.00 | 15 | 974.0 |
| 20260508200548 | 95 | 360 | 11.0 | 18.0 | 0.00 | 0.00 | 0.00 | 15 | 974.1 |
| 20260508200049 | 95 | 360 | 4.0 | 14.0 | 0.00 | 0.00 | 0.00 | 15 | 974.1 |
| 20260508195548 | 95 | 360 | 10.0 | 14.0 | 0.00 | 0.00 | 0.00 | 15 | 974.3 |
| 20260508195049 | 95 | 360 | 8.0 | 14.0 | 0.00 | 0.00 | 0.00 | 15 | 974.3 |
| 20260508194602 | 94 | 360 | 10.0 | 14.0 | 0.00 | 0.00 | 0.00 | 15 | 974.2 |
| 20260508194049 | 94 | 360 | 6.0 | 11.0 | 0.00 | 0.00 | 0.00 | 15 | 974.3 |
| 20260508193548 | 93 | 360 | 2.0 | 9.0 | 0.00 | 0.00 | 0.00 | 16 | 974.4 |
| 20260508193105 | 94 | 360 | 3.0 | 8.0 | 0.00 | 0.00 | 0.00 | 18 | 974.5 |
| 20260508192548 | 94 | 360 | 2.0 | 9.0 | 0.00 | 0.00 | 0.00 | 17 | 974.5 |
| 20260508192052 | 93 | 360 | 2.0 | 9.0 | 0.00 | 0.00 | 0.00 | 17 | 974.6 |
| 20260508191557 | 94 | 360 | 3.0 | 6.0 | 0.00 | 0.00 | 0.00 | 17 | 974.7 |
| 20260508191048 | 94 | 360 | 2.0 | 6.0 | 0.00 | 0.00 | 0.00 | 18 | 974.8 |
| 20260508190549 | 94 | 360 | 3.0 | 9.0 | 0.00 | 0.00 | 0.00 | 17 | 974.9 |
| 20260508190108 | 94 | 360 | 3.0 | 9.0 | 0.00 | 0.00 | 0.00 | 17 | 974.8 |
| 20260508185548 | 93 | 360 | 0.0 | 6.0 | 0.00 | 0.00 | 0.00 | 18 | 975.1 |
| 20260508185048 | 92 | 360 | 3.0 | 6.0 | 0.00 | 0.00 | 0.00 | 18 | 975.1 |
| 20260508184549 | 92 | 360 | 1.0 | 3.0 | 0.00 | 0.00 | 0.00 | 18 | 975.2 |
| 20260508184048 | 90 | 360 | 0.0 | 8.0 | 0.00 | 0.00 | 0.00 | 19 | 975.3 |
| 20260508183548 | 89 | 360 | 4.0 | 8.0 | 0.00 | 0.00 | 0.00 | 20 | 975.4 |
| 20260508183048 | 89 | 360 | 3.0 | 10.0 | 0.00 | 0.00 | 0.00 | 20 | 975.5 |
| 20260508182549 | 89 | 360 | 2.0 | 10.0 | 0.00 | 0.00 | 0.00 | 20 | 975.6 |
| 20260508182048 | 89 | 360 | 5.0 | 9.0 | 0.00 | 0.00 | 0.00 | 20 | 975.6 |
| 20260508181553 | 88 | 360 | 3.0 | 10.0 | 0.00 | 0.00 | 0.00 | 21 | 975.6 |
| 20260508181048 | 88 | 360 | 6.0 | 10.0 | 0.00 | 0.00 | 0.00 | 21 | 975.8 |
| 20260508180553 | 88 | 360 | 6.0 | 9.0 | 0.00 | 0.00 | 0.00 | 20 | 975.9 |
| 20260508180049 | 89 | 360 | 5.0 | 13.0 | 0.00 | 0.00 | 0.00 | 20 | 976.0 |
| 20260508175548 | 90 | 360 | 8.0 | 13.0 | 0.00 | 0.00 | 0.00 | 20 | 976.0 |
| 20260508175049 | 90 | 360 | 2.0 | 9.0 | 0.00 | 0.00 | 0.00 | 19 | 976.0 |
| 20260508174550 | 90 | 135 | 3.0 | 9.0 | 0.00 | 0.00 | 0.00 | 19 | 976.0 |
| 20260508174049 | 90 | 171 | 0.0 | 2.0 | 0.00 | 0.00 | 0.00 | 20 | 976.0 |
| 20260508173548 | 88 | 360 | 0.0 | 10.0 | 0.00 | 0.00 | 0.00 | 20 | 976.1 |
| 20260508173048 | 86 | 360 | 4.0 | 10.0 | 0.00 | 0.00 | 0.00 | 21 | 976.2 |
| 20260508172551 | 86 | 360 | 1.0 | 9.0 | 0.00 | 0.00 | 0.00 | 21 | 976.0 |
| 20260508172048 | 85 | 360 | 5.0 | 9.0 | 0.00 | 0.00 | 0.00 | 22 | 976.1 |
| 20260508171549 | 85 | 360 | 3.0 | 8.0 | 0.00 | 0.00 | 0.00 | 22 | 976.3 |
| 20260508171048 | 84 | 360 | 3.0 | 10.0 | 0.00 | 0.00 | 0.00 | 22 | 976.3 |
| 20260508170548 | 84 | 360 | 2.0 | 10.0 | 0.00 | 0.00 | 0.00 | 23 | 976.3 |
| 20260508170048 | 84 | 360 | 5.0 | 9.0 | 0.00 | 0.00 | 0.00 | 22 | 976.3 |
| 20260508165548 | 84 | 360 | 0.0 | 10.0 | 0.00 | 0.00 | 0.00 | 22 | 976.2 |
| 20260508165048 | 83 | 360 | 3.0 | 10.0 | 0.00 | 0.00 | 0.00 | 23 | 976.4 |
| 20260508164548 | 83 | 360 | 6.0 | 10.0 | 0.00 | 0.00 | 0.00 | 23 | 976.4 |
| 20260508164048 | 82 | 360 | 5.0 | 9.0 | 0.00 | 0.00 | 0.00 | 23 | 976.4 |
| 20260508163551 | 82 | 360 | 5.0 | 8.0 | 0.00 | 0.00 | 0.00 | 23 | 976.4 |
| 20260508163100 | 82 | 360 | 4.0 | 8.0 | 0.00 | 0.00 | 0.00 | 24 | 976.5 |
| 20260508162549 | 81 | 360 | 4.0 | 8.0 | 0.00 | 0.00 | 0.00 | 24 | 976.5 |
| 20260508162051 | 81 | 360 | 4.0 | 10.0 | 0.00 | 0.00 | 0.00 | 25 | 976.5 |
| 20260508161556 | 81 | 360 | 6.0 | 10.0 | 0.00 | 0.00 | 0.00 | 25 | 976.4 |
| 20260508161048 | 81 | 360 | 4.0 | 9.0 | 0.00 | 0.00 | 0.00 | 26 | 976.6 |
| 20260508160548 | 81 | 360 | 4.0 | 8.0 | 0.00 | 0.00 | 0.00 | 26 | 976.6 |
| 20260508160048 | 81 | 360 | 4.0 | 6.0 | 0.00 | 0.00 | 0.00 | 25 | 976.5 |
| 20260508155548 | 81 | 360 | 2.0 | 6.0 | 0.00 | 0.00 | 0.00 | 26 | 976.6 |
| 20260508155048 | 80 | 360 | 3.0 | 6.0 | 0.00 | 0.00 | 0.00 | 26 | 976.5 |
| 20260508154548 | 80 | 360 | 3.0 | 6.0 | 0.00 | 0.00 | 0.00 | 26 | 976.6 |
| 20260508154048 | 79 | 360 | 2.0 | 6.0 | 0.00 | 0.00 | 0.00 | 26 | 976.5 |
| 20260508153549 | 78 | 360 | 4.0 | 8.0 | 0.00 | 0.00 | 0.00 | 26 | 976.5 |
| 20260508153100 | 78 | 360 | 5.0 | 8.0 | 0.00 | 0.00 | 0.00 | 27 | 976.5 |
| 20260508152552 | 78 | 360 | 4.0 | 8.0 | 0.00 | 0.00 | 0.00 | 27 | 976.6 |
| 20260508152048 | 77 | 360 | 5.0 | 8.0 | 0.00 | 0.00 | 0.00 | 28 | 976.6 |
| 20260508151549 | 77 | 360 | 3.0 | 8.0 | 0.00 | 0.00 | 0.00 | 28 | 976.6 |
| 20260508151050 | 76 | 360 | 5.0 | 9.0 | 0.00 | 0.00 | 0.00 | 29 | 976.8 |
| 20260508150549 | 76 | 360 | 6.0 | 9.0 | 0.00 | 0.00 | 0.00 | 29 | 976.9 |
| 20260508150049 | 76 | 360 | 7.0 | 11.0 | 0.00 | 0.00 | 0.00 | 29 | 976.7 |
| 20260508145552 | 75 | 360 | 8.0 | 11.0 | 0.00 | 0.00 | 0.00 | 29 | 976.7 |
| 20260508145048 | 75 | 360 | 6.0 | 11.0 | 0.00 | 0.00 | 0.00 | 30 | 976.7 |
| 20260508144548 | 74 | 360 | 9.0 | 12.0 | 0.00 | 0.00 | 0.00 | 30 | 976.7 |
| 20260508144048 | 74 | 360 | 8.0 | 12.0 | 0.00 | 0.00 | 0.00 | 30 | 976.7 |
| 20260508143548 | 73 | 360 | 8.0 | 14.0 | 0.00 | 0.00 | 0.00 | 31 | 976.7 |
| 20260508143108 | 73 | 360 | 10.0 | 14.0 | 0.00 | 0.00 | 0.00 | 31 | 976.7 |
| 20260508142548 | 73 | 360 | 9.0 | 14.0 | 0.00 | 0.00 | 0.00 | 31 | 976.6 |
| 20260508142048 | 72 | 360 | 11.0 | 15.0 | 0.00 | 0.00 | 0.00 | 32 | 976.6 |
| 20260508141556 | 72 | 360 | 11.0 | 16.0 | 0.00 | 0.00 | 0.00 | 32 | 976.6 |
| 20260508141049 | 71 | 360 | 12.0 | 16.0 | 0.00 | 0.00 | 0.00 | 32 | 976.5 |
| 20260508140550 | 70 | 360 | 11.0 | 13.0 | 0.00 | 0.00 | 0.00 | 33 | 976.4 |
| 20260508140055 | 69 | 360 | 7.0 | 11.0 | 0.00 | 0.00 | 0.00 | 35 | 976.5 |
| 20260508135548 | 67 | 360 | 7.0 | 10.0 | 0.00 | 0.00 | 0.00 | 36 | 976.5 |
| 20260508135049 | 67 | 360 | 6.0 | 9.0 | 0.00 | 0.00 | 0.00 | 37 | 976.3 |
| 20260508134549 | 66 | 360 | 5.0 | 8.0 | 0.00 | 0.00 | 0.00 | 37 | 976.2 |
| 20260508134048 | 66 | 360 | 6.0 | 10.0 | 0.00 | 0.00 | 0.00 | 37 | 976.1 |
| 20260508133548 | 65 | 360 | 5.0 | 10.0 | 0.00 | 0.00 | 0.00 | 37 | 976.0 |
| 20260508133049 | 66 | 360 | 8.0 | 10.0 | 0.00 | 0.00 | 0.00 | 36 | 975.9 |
| 20260508132548 | 67 | 360 | 7.0 | 9.0 | 0.00 | 0.00 | 0.00 | 35 | 975.9 |
| 20260508132048 | 68 | 360 | 6.0 | 10.0 | 0.00 | 0.00 | 0.00 | 33 | 975.8 |
| 20260508131548 | 68 | 360 | 7.0 | 10.0 | 0.00 | 0.00 | 0.00 | 33 | 975.8 |
| 20260508131049 | 68 | 360 | 7.0 | 9.0 | 0.00 | 0.00 | 0.00 | 32 | 975.6 |
| 20260508130551 | 68 | 360 | 8.0 | 10.0 | 0.00 | 0.00 | 0.00 | 32 | 975.5 |
| 20260508130048 | 68 | 360 | 8.0 | 10.0 | 0.00 | 0.00 | 0.00 | 32 | 975.4 |
| 20260508125548 | 69 | 360 | 6.0 | 10.0 | 0.00 | 0.00 | 0.00 | 31 | 975.4 |
| 20260508125048 | 70 | 360 | 8.0 | 10.0 | 0.00 | 0.00 | 0.00 | 30 | 975.4 |
| 20260508124548 | 70 | 360 | 8.0 | 10.0 | 0.00 | 0.00 | 0.00 | 30 | 975.3 |
| 20260508124048 | 71 | 360 | 8.0 | 9.0 | 0.00 | 0.00 | 0.00 | 30 | 975.1 |
| 20260508123548 | 71 | 360 | 7.0 | 9.0 | 0.00 | 0.00 | 0.00 | 29 | 975.0 |
| 20260508123051 | 71 | 360 | 8.0 | 9.0 | 0.00 | 0.00 | 0.00 | 29 | 974.8 |
| 20260508122548 | 72 | 360 | 5.0 | 9.0 | 0.00 | 0.00 | 0.00 | 29 | 974.9 |
| 20260508122048 | 72 | 360 | 6.0 | 10.0 | 0.00 | 0.00 | 0.00 | 28 | 974.9 |
| 20260508121548 | 72 | 360 | 8.0 | 11.0 | 0.00 | 0.00 | 0.00 | 29 | 975.0 |
| 20260508121049 | 71 | 360 | 8.0 | 11.0 | 0.00 | 0.00 | 0.00 | 29 | 974.9 |
| 20260508120548 | 71 | 360 | 7.0 | 9.0 | 0.00 | 0.00 | 0.00 | 28 | 975.0 |
| 20260508120059 | 71 | 360 | 8.0 | 9.0 | 0.00 | 0.00 | 0.00 | 28 | 975.0 |
| 20260508115553 | 71 | 360 | 7.0 | 9.0 | 0.00 | 0.00 | 0.00 | 27 | 974.9 |
| 20260508115052 | 71 | 360 | 8.0 | 9.0 | 0.00 | 0.00 | 0.00 | 27 | 974.8 |
| 20260508114556 | 72 | 360 | 6.0 | 10.0 | 0.00 | 0.00 | 0.00 | 27 | 974.8 |
| 20260508114048 | 72 | 360 | 7.0 | 10.0 | 0.00 | 0.00 | 0.00 | 26 | 974.8 |
| 20260508113548 | 72 | 360 | 7.0 | 12.0 | 0.00 | 0.00 | 0.00 | 26 | 974.9 |
| 20260508113050 | 72 | 360 | 8.0 | 13.0 | 0.00 | 0.00 | 0.00 | 26 | 974.8 |
| 20260508112549 | 73 | 360 | 9.0 | 13.0 | 0.00 | 0.00 | 0.00 | 26 | 974.8 |
| 20260508112048 | 72 | 360 | 9.0 | 13.0 | 0.00 | 0.00 | 0.00 | 25 | 974.7 |